Wind_Speed
10 11 11 11 11 10 10 10 10 10 10 10 9 9 9 9 9 9 9 9 8 8 7 7 7 7 6 5 5 5 5 4 3 3 2 2 1 2 2 3 4 6 7 8 8 8 9 10 10 10 11 11 12 12 13 13 13 13 13 13 13 13 13 13 13 13 13 13 13 13 14 14 13 13 12 12 12 12 12 12 12 13 13 14 14
9 10 11 12 12 11 11 11 10 10 10 10 9 8 8 8 9 10 10 10 9 9 9 8 8 7 6 5 5 5 5 5 4 4 3 3 3 4 5 5 6 7 8 10 10 11 11 12 12 12 12 13 13 13 13 14 13 13 12 12 12 13 13 13 13 13 12 13 13 14 14 14 14 13 12 12 12 11 11 11 12 12 12 13 13
8 9 10 10 11 12 12 12 12 11 11 10 9 8 8 9 9 10 11 11 10 10 9 9 8 7 7 6 6 5 5 5 5 5 5 5 5 6 7 8 8 9 11 12 13 14 14 14 13 13 14 14 14 14 14 14 13 13 12 12 12 12 13 13 12 13 12 12 13 13 14 14 14 13 12 12 12 12 11 11 11 11 12 12 13
8 8 9 9 10 11 12 12 12 12 11 11 10 10 9 9 10 11 11 11 11 10 9 9 9 7 6 6 6 6 6 6 6 6 7 7 8 9 9 10 11 12 13 14 15 16 16 16 15 14 15 15 15 15 15 14 13 13 13 12 12 12 12 12 12 13 12 12 12 13 13 13 13 13 13 12 12 12 12 12 12 12 12 12 13
9 9 9 9 10 11 12 12 12 12 12 12 11 10 10 10 10 11 11 11 10 10 10 9 8 8 7 7 8 8 8 8 8 8 9 10 11 12 13 14 15 16 16 17 18 19 18 17 16 15 15 15 16 16 15 15 14 14 13 12 12 12 12 12 12 13 13 12 13 13 13 13 13 13 13 12 12 12 12 13 13 13 13 13 13
10 10 10 10 11 12 13 13 13 14 14 13 12 11 10 10 10 11 11 11 10 10 9 9 8 8 9 9 10 10 10 10 11 12 12 13 14 15 16 17 18 19 20 21 20 19 18 17 16 15 15 15 16 16 16 15 15 14 14 13 12 12 12 12 12 13 13 13 14 14 14 14 14 14 14 14 13 12 12 12 13 13 13 13 14
11 11 11 11 11 12 13 15 16 16 15 14 13 12 11 11 12 12 11 11 10 10 10 9 9 10 11 11 12 12 12 13 14 15 15 16 17 18 19 20 21 21 22 21 19 18 17 16 16 16 15 15 15 16 16 16 15 15 14 13 12 12 12 12 13 14 14 14 15 16 16 16 16 16 16 15 14 14 13 12 12 13 14 14 14
10 10 11 11 12 13 14 15 16 18 17 15 14 13 13 13 13 13 12 12 11 11 11 11 11 11 12 13 13 14 14 15 15 16 17 18 19 20 20 21 20 20 18 17 16 16 16 16 15 15 15 15 15 15 15 16 15 15 14 14 13 12 12 13 14 15 15 16 16 17 17 18 17 17 17 17 16 15 14 13 13 14 14 15 15
9 9 10 11 11 13 14 15 16 17 16 15 16 15 15 14 14 13 13 13 13 12 12 12 12 13 14 15 15 16 16 16 16 17 18 18 19 18 18 16 15 15 14 14 15 15 15 15 14 14 14 14 14 14 15 15 16 16 16 15 14 13 13 14 15 16 17 17 17 18 19 19 19 18 18 19 18 17 16 15 14 14 15 16 18
9 10 11 11 11 12 13 15 16 16 16 16 17 16 15 16 15 15 15 14 13 13 13 14 14 15 16 16 17 17 17 16 16 16 16 15 14 14 13 11 11 12 12 13 13 13 13 13 13 13 13 13 14 14 15 15 16 17 17 17 16 16 15 16 16 17 18 18 18 19 20 20 20 20 20 20 20 19 18 17 16 16 17 18 20
12 13 13 12 12 13 13 14 15 16 16 17 17 16 17 17 17 17 16 15 14 14 15 15 16 17 17 18 18 17 16 15 14 13 13 12 12 12 11 10 10 11 11 12 12 12 13 13 13 13 13 14 14 14 15 16 16 17 18 18 18 17 17 17 18 18 19 19 20 21 21 22 21 21 20 21 21 21 19 18 18 19 20 20 22
16 16 15 14 13 13 14 14 14 15 16 16 16 17 18 18 19 18 17 15 15 15 15 17 18 18 18 17 17 16 14 13 13 12 12 12 12 12 11 11 11 12 12 12 13 13 13 14 14 14 14 14 15 15 15 16 17 18 18 19 19 19 19 19 19 19 20 20 21 22 22 23 23 22 21 21 21 21 20 19 19 20 21 22 24
20 20 18 16 15 13 14 14 13 13 15 16 17 17 18 18 18 18 17 16 15 15 15 16 17 16 16 15 15 14 13 12 12 12 12 12 12 12 12 13 13 13 14 14 14 14 15 15 15 15 16 16 16 17 17 17 17 18 19 20 20 20 20 20 20 20 20 21 22 22 23 24 24 23 22 21 21 22 21 20 20 21 22 23 25
21 21 20 18 15 13 12 13 12 12 13 15 16 17 17 17 17 17 17 16 15 15 15 15 15 14 14 14 13 13 12 12 12 12 12 12 12 13 13 14 14 14 15 15 15 16 16 16 16 17 18 18 19 19 18 18 18 19 20 21 21 21 21 21 21 21 22 22 23 23 23 24 25 24 22 21 21 21 21 21 21 22 23 24 25
20 17 17 15 13 12 12 12 13 13 14 14 14 15 16 16 17 17 17 16 16 15 14 14 14 13 12 12 12 12 12 12 12 12 13 13 13 14 14 14 14 15 16 17 17 18 18 18 18 19 20 20 20 20 20 20 20 21 22 22 22 22 23 23 23 23 23 23 24 24 24 24 25 25 23 22 21 22 22 22 22 23 23 25 26
20 15 15 14 13 13 13 13 13 13 14 14 14 13 14 16 17 17 17 17 16 14 14 14 14 12 11 11 12 12 12 12 12 13 13 13 14 15 15 15 15 16 17 19 20 21 22 22 22 22 22 22 22 22 22 22 22 23 24 24 24 23 24 24 25 25 25 25 25 25 25 25 26 25 24 22 23 24 24 23 23 23 24 26 29
21 16 16 16 15 15 14 14 14 13 12 13 13 13 14 16 17 17 17 16 15 14 14 14 13 12 12 12 12 13 13 13 13 13 13 13 14 16 17 17 17 17 18 20 21 23 24 24 24 25 24 24 24 24 24 25 26 27 27 27 26 25 25 25 26 26 26 26 26 26 26 26 26 26 24 23 24 25 25 23 23 24 26 29 30
20 17 17 17 17 16 15 15 14 12 11 12 13 14 14 15 16 16 16 15 15 15 15 14 13 13 13 13 14 14 14 14 15 15 15 16 17 18 18 18 19 19 20 21 22 23 24 24 24 25 26 26 26 26 27 28 29 29 29 29 28 28 27 27 27 27 27 27 27 27 27 27 27 26 24 23 23 23 23 22 24 26 29 30 31
19 18 18 19 18 16 16 16 15 13 11 11 14 15 14 14 14 15 16 16 17 16 15 14 14 14 14 14 14 15 15 16 16 17 18 19 20 21 21 21 20 21 23 25 25 25 26 25 25 27 27 27 27 28 29 30 31 30 30 30 29 29 28 28 28 28 28 28 28 27 27 27 26 26 24 23 21 21 22 24 26 28 30 31 33
19 19 19 19 18 18 18 17 16 13 11 12 13 14 14 13 13 14 15 17 17 16 15 15 15 15 14 15 15 16 17 17 18 20 20 21 22 24 24 23 22 23 25 27 29 30 30 29 29 30 29 29 29 30 31 33 33 32 31 31 30 29 29 29 29 28 28 28 28 28 28 27 26 26 25 22 21 22 25 27 28 30 31 33 36
19 20 20 20 19 20 19 17 16 14 12 12 13 12 13 13 13 14 15 16 16 16 15 16 15 15 15 15 16 17 18 19 20 21 21 22 23 24 25 25 25 26 27 28 30 32 32 32 33 34 32 32 33 34 34 34 35 34 33 33 32 31 30 30 30 29 28 28 29 28 28 27 27 26 25 23 23 25 28 29 30 30 32 35 37
18 20 20 20 21 21 20 18 17 14 12 12 12 11 12 13 14 14 15 15 15 15 15 15 15 15 15 16 18 18 18 20 22 22 23 22 22 24 26 26 28 29 30 31 31 32 33 34 35 36 34 35 38 39 37 35 36 36 36 36 36 34 33 32 32 30 29 29 29 28 28 27 27 26 25 24 25 27 29 30 31 32 34 37 38
19 21 20 21 23 23 21 20 18 15 13 12 11 11 11 12 13 13 13 14 14 14 15 15 15 15 16 17 18 18 19 21 23 23 23 23 23 24 25 27 29 31 33 34 34 34 35 36 37 36 35 37 39 41 41 40 38 38 38 38 38 37 36 35 33 31 29 29 29 29 28 27 27 27 26 26 28 29 30 31 32 34 37 37 39
20 21 21 22 24 23 22 21 19 17 15 13 12 12 12 12 12 12 13 14 14 14 15 15 15 16 17 17 17 18 20 20 21 20 21 22 23 25 27 29 31 31 33 35 36 36 36 37 36 35 37 39 39 40 42 43 43 42 42 41 40 39 38 37 35 32 29 29 29 29 28 27 28 29 29 30 31 32 32 32 34 36 37 38 40
19 21 21 23 23 23 23 23 21 19 16 14 13 14 15 14 14 14 14 14 14 15 15 15 16 16 16 17 18 18 18 19 19 20 23 25 26 27 29 30 30 31 33 36 37 34 33 34 35 36 39 41 41 41 42 44 47 48 47 45 42 40 39 38 36 34 30 29 29 29 28 28 29 31 32 33 34 34 34 34 36 37 37 38 41
20 22 22 23 23 23 24 24 23 21 18 15 14 16 17 17 17 16 16 15 15 16 16 15 16 16 16 16 17 17 18 20 23 25 28 31 32 31 31 33 36 37 38 40 41 37 36 38 40 40 40 42 44 45 44 46 50 51 51 51 48 42 38 38 37 36 33 30 29 30 30 31 31 32 33 34 34 34 35 36 37 36 37 39 42
22 23 23 23 22 23 24 24 24 22 20 18 17 17 17 17 18 18 17 17 17 17 17 16 16 16 16 15 16 18 20 24 27 28 30 31 31 33 36 40 43 44 43 43 42 38 38 41 42 41 40 40 43 45 46 48 51 52 54 56 54 45 37 37 38 38 35 32 31 32 33 32 32 32 32 33 34 35 36 37 36 35 38 41 43
23 23 23 22 23 24 24 24 23 22 21 20 19 18 18 17 18 18 18 18 18 18 17 16 16 16 16 16 18 20 23 27 29 29 33 36 35 37 39 39 40 40 39 37 35 35 38 40 40 41 40 40 42 45 47 48 50 53 56 59 56 45 36 36 39 39 37 35 34 35 34 33 32 31 32 34 34 35 36 36 35 36 39 41 42
24 24 23 23 24 25 25 25 24 23 22 21 21 20 19 19 19 18 17 17 17 17 16 16 16 16 16 17 20 23 25 29 30 31 35 37 34 33 34 33 33 36 36 35 34 35 39 40 41 42 41 40 41 45 48 49 51 56 61 62 56 45 38 38 39 39 37 36 36 37 36 34 33 32 33 34 35 35 35 34 35 37 39 40 41
24 25 24 24 26 26 26 26 26 23 21 21 21 21 20 20 19 17 17 17 18 18 18 18 17 16 17 19 22 25 27 30 32 33 35 35 31 29 31 32 33 35 37 38 38 39 41 40 40 41 38 36 38 41 44 46 47 51 57 60 56 46 42 42 40 38 38 37 37 38 38 36 33 33 34 34 35 35 35 35 36 37 38 39 40
25 25 24 25 27 26 27 28 26 23 22 21 21 22 21 21 19 18 17 17 16 17 17 17 17 17 19 22 23 26 28 30 32 34 35 35 34 34 35 36 37 37 39 40 40 40 40 38 38 37 33 31 33 34 35 37 38 39 44 50 52 48 46 44 42 40 39 37 35 37 38 36 33 33 34 34 34 35 36 36 37 37 38 40 40
25 25 25 26 26 26 27 28 26 24 24 24 23 23 22 22 21 22 21 18 16 15 15 17 19 20 22 24 25 27 29 31 33 36 38 38 38 39 40 42 44 44 44 43 40 40 40 39 36 32 29 30 30 28 29 31 31 31 32 37 46 51 48 43 41 41 40 36 34 36 37 34 32 33 33 33 34 36 37 38 38 39 40 41 41
25 25 26 26 26 27 28 27 25 25 26 26 27 26 24 23 24 24 24 21 19 18 18 20 22 23 24 25 26 28 31 33 35 38 41 42 43 43 44 46 47 48 47 44 41 41 41 37 30 26 26 28 27 26 28 28 28 29 30 31 39 47 48 43 41 41 40 36 35 36 35 33 32 32 32 33 36 39 39 39 40 42 43 42 43
26 26 28 28 27 27 28 26 26 27 28 29 30 29 27 26 25 24 24 24 23 22 22 23 24 25 25 26 27 29 32 34 36 39 41 43 45 46 47 48 49 49 48 44 40 39 38 33 28 26 26 26 25 26 29 28 27 29 30 31 32 38 43 44 43 42 40 36 35 35 32 31 30 30 32 35 39 41 41 41 43 44 44 44 44
28 28 30 29 26 26 27 27 28 29 30 31 31 31 32 29 25 24 25 26 26 26 26 26 27 27 27 28 29 31 33 36 37 39 41 44 46 47 48 49 49 48 46 41 37 37 36 34 32 29 26 24 25 26 27 28 29 31 32 31 29 32 40 44 43 41 38 35 34 32 30 30 30 32 36 39 41 43 43 44 45 45 44 45 46
29 30 31 29 26 27 29 30 30 31 32 33 34 35 35 31 26 26 29 30 30 29 29 29 29 29 30 31 31 32 35 36 38 39 41 43 45 46 48 48 47 46 43 39 37 36 35 34 32 29 26 25 25 26 27 30 33 34 33 30 27 31 40 44 42 38 35 34 33 30 28 30 33 37 41 43 44 45 45 45 45 44 44 46 47
31 31 32 30 29 30 31 30 31 33 35 37 38 37 35 33 31 30 31 33 34 33 32 31 31 31 32 33 34 35 37 38 40 41 42 43 44 46 47 46 44 42 41 39 37 35 34 33 32 30 28 26 25 26 28 30 31 31 29 27 26 33 42 44 38 33 31 32 31 28 28 31 36 41 44 44 45 46 46 46 45 45 46 47 47
34 33 33 33 33 33 33 33 35 38 39 40 40 39 38 36 35 34 35 36 38 37 36 35 35 35 35 35 37 40 42 43 44 45 45 44 45 45 45 44 42 40 40 40 37 34 31 31 31 29 27 26 26 26 27 28 28 27 25 24 26 33 39 38 32 29 29 30 30 30 31 36 42 45 46 45 46 46 46 46 46 46 47 47 47
36 35 35 36 35 35 37 39 40 41 41 41 41 41 41 40 39 39 39 39 40 40 39 38 38 38 38 38 38 41 45 47 49 49 49 46 44 44 43 43 41 41 41 41 39 35 31 30 30 29 27 27 27 27 28 29 29 29 26 24 26 33 35 31 27 27 28 30 32 34 36 42 47 48 47 48 48 47 46 47 47 47 47 47 47
38 36 37 38 37 37 39 41 43 43 43 43 44 44 44 44 44 44 43 43 42 42 42 42 41 41 41 41 40 43 47 49 51 52 52 48 44 43 43 42 42 42 41 40 38 35 32 30 29 28 28 29 29 29 30 30 29 29 28 25 26 31 31 27 25 26 28 31 34 38 41 46 49 49 48 49 48 46 47 48 48 48 47 47 48
39 37 37 38 39 38 40 42 43 43 44 44 45 46 47 47 47 47 46 45 44 44 44 44 43 43 44 43 44 45 48 51 52 54 53 49 45 43 43 43 42 41 39 37 36 34 31 30 29 29 30 31 31 31 31 30 28 27 27 26 26 27 27 25 26 28 30 33 38 42 44 47 49 49 48 47 47 47 49 49 49 48 47 47 47
40 39 39 39 40 40 42 44 44 44 44 45 46 47 48 48 48 48 47 46 47 47 46 46 46 46 46 45 45 47 49 50 53 54 51 47 45 44 43 42 41 39 37 35 34 32 31 31 31 32 32 32 32 32 31 30 27 24 25 25 23 24 26 28 29 32 34 36 40 43 45 46 47 47 46 47 48 50 50 49 48 48 47 47 47
41 41 41 41 41 41 42 44 45 45 46 46 47 47 48 48 49 49 49 50 49 48 47 47 48 49 48 47 46 46 48 49 51 51 48 44 42 42 41 39 38 36 35 34 34 33 33 34 34 35 35 34 34 33 30 28 25 23 24 24 24 26 28 30 33 38 39 38 39 41 42 44 45 45 47 49 51 50 49 48 48 48 48 47 47
42 42 41 42 42 41 41 42 44 46 47 48 48 48 49 50 51 51 51 51 51 49 48 47 49 51 51 49 47 46 47 48 49 49 45 41 38 37 37 36 35 35 35 35 35 35 36 37 38 39 39 37 36 34 29 26 24 26 28 28 28 31 34 35 39 43 43 41 41 42 43 44 46 48 50 51 50 48 47 48 49 49 48 46 45
42 42 41 41 41 40 40 40 42 43 46 47 47 47 48 49 50 51 51 50 49 49 48 47 49 51 50 49 47 47 47 47 47 45 42 38 35 33 33 33 34 36 36 37 38 38 39 40 41 41 41 39 38 35 28 24 25 29 31 31 34 37 39 41 44 45 44 44 44 44 45 46 48 49 50 49 47 47 48 49 49 47 46 45 44
42 42 41 40 41 41 40 41 42 43 44 44 44 44 45 45 45 45 46 46 48 49 48 46 46 47 47 48 48 47 45 44 44 41 37 35 32 31 32 34 35 37 38 39 40 41 42 42 42 41 41 40 38 33 26 23 26 30 33 36 39 41 41 43 44 44 43 43 44 45 46 47 48 49 48 47 48 49 49 49 47 45 44 43 42
42 42 41 42 43 44 43 43 44 44 44 43 42 42 43 43 42 43 44 45 47 48 46 45 45 46 47 47 46 45 43 42 41 38 35 33 33 33 34 35 36 38 39 41 42 43 44 44 42 41 40 39 36 32 27 25 28 31 34 37 39 40 41 42 42 41 41 42 43 45 46 46 47 47 48 49 49 49 48 46 45 43 42 42 41
43 43 42 43 45 45 45 44 42 40 39 39 39 40 42 43 44 44 45 46 46 45 45 45 47 48 47 46 44 43 42 41 39 37 35 35 36 36 36 37 38 39 41 43 44 44 44 44 42 41 41 39 36 32 29 29 30 32 34 35 36 37 39 39 40 40 41 41 42 43 45 46 46 47 47 47 47 45 44 44 43 42 42 41 41
43 43 42 43 45 45 42 39 37 36 37 38 40 42 43 44 45 46 46 45 45 45 46 47 48 47 45 43 43 42 41 40 39 38 37 38 38 38 38 38 39 41 42 43 43 42 42 42 42 42 41 38 35 32 32 33 34 34 34 34 34 36 37 38 39 40 40 41 43 43 44 44 44 44 44 43 43 42 42 42 41 41 41 40 39
42 42 42 43 45 43 39 36 36 37 38 39 41 42 43 44 46 46 45 45 46 47 48 48 47 45 44 43 42 41 40 40 39 39 39 39 39 39 39 40 41 43 43 43 42 40 40 42 42 40 38 37 36 37 37 36 34 33 33 33 34 36 37 39 40 40 41 43 44 42 41 40 40 40 41 40 40 40 40 39 39 39 39 38 36
42 42 41 41 41 40 38 37 37 37 38 39 41 42 44 45 46 46 47 47 47 48 49 48 46 44 43 42 41 40 39 39 39 39 40 40 41 41 41 42 43 43 43 42 42 42 42 44 43 41 40 41 41 41 39 36 34 34 34 35 36 38 39 40 40 41 42 43 41 39 38 38 38 39 39 39 38 38 37 37 37 36 36 35 33
Wind_Direction
177 178 181 183 188 192 197 201 203 203 206 210 213 213 214 215 219 223 226 230 235 234 229 225 220 216 216 210 199 193 194 193 187 186 192 210 268 305 312 315 317 319 321 322 323 326 325 323 324 323 322 322 323 324 324 324 322 319 316 311 308 309 312 316 318 321 322 320 320 321 321 321 322 322 321 319 319 319 320 321 323 323 324 324 324
188 186 185 186 187 191 198 203 207 210 213 217 221 224 223 221 222 224 228 233 234 232 230 225 217 213 211 210 208 203 200 203 211 221 235 253 276 291 298 305 309 312 313 315 316 316 312 310 310 312 313 314 316 317 319 321 320 317 314 310 308 309 311 313 313 315 318 318 319 322 322 321 322 322 320 316 315 315 314 315 316 317 318 319 319
203 201 197 196 195 195 198 202 207 212 215 219 223 227 227 225 225 225 226 230 232 230 229 226 219 215 214 216 219 221 218 221 230 247 263 274 282 289 295 300 305 309 312 314 315 313 308 304 302 304 306 308 310 311 313 317 317 314 313 311 309 308 308 308 309 310 313 317 321 324 323 323 323 323 321 317 314 312 313 313 313 314 314 315 316
215 216 212 212 210 208 208 208 210 212 214 217 219 220 222 222 223 225 226 226 227 229 229 228 226 224 227 234 236 239 242 244 252 262 271 279 285 288 292 297 302 306 308 310 311 311 309 305 300 299 301 304 305 306 308 311 311 310 312 311 307 303 300 300 302 304 308 314 320 324 325 326 325 323 322 320 317 316 315 315 315 315 315 315 315
220 224 224 225 226 224 223 223 221 218 218 219 218 217 216 219 221 222 223 223 224 226 228 228 233 238 244 251 253 256 261 266 271 276 281 285 288 290 293 296 299 302 304 306 307 307 306 303 299 296 296 298 300 300 301 304 305 304 306 305 299 294 291 293 297 300 305 310 316 321 325 327 326 325 325 323 321 320 319 317 317 317 316 316 315
223 225 228 231 233 235 235 236 233 227 225 224 222 219 215 215 217 219 219 221 224 227 230 232 236 245 251 255 261 265 271 277 281 285 287 289 290 291 294 295 297 299 300 302 304 304 302 300 298 294 292 293 294 294 296 298 298 296 295 293 290 287 285 288 293 298 302 307 312 317 321 325 327 327 328 327 325 323 320 316 313 313 313 314 314
225 226 228 233 237 240 241 240 239 236 234 232 229 226 222 218 216 217 217 219 225 230 233 237 242 250 256 260 265 270 275 280 284 287 289 291 293 294 294 295 296 297 298 300 302 301 298 296 295 292 289 289 290 290 290 290 288 284 284 285 285 285 284 284 288 294 300 304 309 313 316 319 323 326 329 330 329 326 323 318 313 310 311 311 312
226 228 231 235 240 244 244 243 242 243 243 241 238 234 230 228 224 222 222 222 227 232 236 240 246 252 258 264 269 274 278 283 287 291 293 294 294 295 294 295 296 297 299 300 299 296 293 292 290 287 285 286 286 285 286 287 285 282 281 285 287 285 284 283 286 291 296 301 306 309 311 314 319 323 328 330 331 328 324 321 317 315 315 314 314
227 235 237 238 242 246 248 247 245 245 246 245 242 239 238 238 237 232 229 230 232 236 241 245 250 255 261 266 271 276 281 286 291 294 296 295 295 294 295 296 297 299 299 297 295 291 289 287 286 284 284 284 286 287 290 295 295 290 288 290 292 291 289 286 287 290 294 298 303 306 308 311 314 319 325 329 330 328 324 321 320 319 318 318 318
230 240 245 245 247 250 253 253 250 247 244 244 243 242 243 244 245 242 239 239 239 242 247 251 255 259 263 267 272 277 283 288 292 295 296 295 294 294 294 295 295 296 296 295 292 289 287 287 287 287 288 290 293 295 298 301 298 293 290 291 294 295 293 291 289 291 293 296 300 302 305 308 310 315 320 324 327 327 324 321 319 318 317 318 318
231 242 249 253 254 257 260 259 257 252 244 243 244 243 245 245 246 247 248 247 246 248 252 254 258 261 264 269 274 279 283 288 293 294 294 293 291 290 288 287 288 292 296 297 295 292 289 289 289 289 291 292 294 297 298 296 293 289 286 286 289 291 292 292 292 292 293 294 296 299 302 304 307 311 315 319 323 325 322 318 316 315 315 317 318
229 237 244 252 258 261 265 264 260 255 249 245 245 242 243 245 247 250 253 253 253 254 256 257 260 263 267 272 275 279 283 288 291 289 288 289 288 285 283 284 287 293 300 303 301 296 292 290 290 291 291 292 292 293 291 289 287 286 284 283 284 286 288 290 292 292 291 291 293 296 299 302 304 307 310 313 318 321 320 316 312 310 310 313 315
240 241 242 246 254 259 265 269 266 260 253 248 245 244 245 247 249 253 253 255 257 257 257 259 263 267 271 274 276 278 282 284 284 281 282 284 284 281 281 285 288 291 298 302 302 300 298 296 296 295 295 295 294 292 289 287 286 285 284 283 282 282 283 286 290 291 290 290 291 293 296 299 301 303 305 308 313 316 316 313 310 306 306 307 310
262 259 256 251 251 257 266 274 276 272 266 256 250 247 248 250 253 254 254 255 255 252 254 260 266 271 273 274 274 276 278 279 278 278 280 283 285 284 283 286 289 291 295 299 301 301 301 302 303 301 299 297 294 292 291 290 288 285 282 282 281 281 280 283 286 289 290 289 289 290 292 295 298 299 300 302 307 311 311 309 306 304 304 305 306
273 272 268 260 253 257 266 277 284 284 280 273 262 253 250 252 254 254 253 251 248 249 257 265 269 270 270 270 272 274 275 276 278 283 285 286 289 289 288 290 292 293 296 301 305 306 306 306 306 304 301 297 294 292 293 292 290 288 284 282 282 281 280 281 283 287 288 288 287 288 290 291 294 295 295 298 303 307 307 305 302 302 304 305 306
275 272 266 262 260 264 270 280 288 291 288 282 272 258 249 248 251 252 249 244 245 253 262 267 268 267 266 266 267 270 272 275 280 286 289 291 293 294 296 298 296 295 296 301 307 309 309 309 308 306 304 299 293 290 290 291 292 291 289 287 285 283 282 282 283 285 286 286 286 287 289 290 291 292 292 296 302 305 304 302 300 301 303 306 307
278 273 265 262 262 268 274 282 290 294 292 287 277 261 246 242 244 247 246 243 249 258 262 263 263 262 262 263 265 268 272 276 281 285 288 290 293 295 298 301 300 297 295 298 302 305 306 306 306 305 304 300 294 289 288 289 290 290 290 290 287 284 283 284 285 285 285 284 285 286 288 290 291 291 290 296 303 304 303 302 301 301 303 306 307
268 269 269 267 266 270 276 284 293 294 292 292 283 266 250 241 239 242 245 246 251 256 256 256 256 256 257 261 265 270 274 280 284 288 291 293 295 298 300 301 299 299 298 297 298 298 298 300 301 301 300 298 293 288 287 288 288 288 288 288 287 285 284 285 286 286 284 283 283 284 287 289 291 290 290 297 302 303 304 304 303 303 303 305 306
258 265 273 274 272 273 277 285 293 292 291 294 284 270 257 246 239 239 241 243 246 249 250 249 249 250 254 260 266 272 278 284 288 292 295 298 300 302 303 302 299 298 298 297 296 295 294 296 297 297 295 294 292 289 288 288 288 287 286 285 285 285 285 285 286 285 284 282 282 284 286 288 289 289 290 295 299 301 304 305 305 305 305 305 306
251 259 267 272 272 270 275 286 292 288 289 292 287 276 264 251 243 240 240 240 241 242 241 241 243 249 255 261 266 273 280 287 291 294 297 301 304 304 304 304 301 297 295 295 296 295 294 296 297 297 293 291 292 291 288 288 288 287 286 283 282 283 285 285 285 284 284 283 283 284 286 288 289 288 289 292 294 298 301 302 304 306 307 308 308
243 249 256 261 264 267 274 284 288 286 286 291 290 280 262 249 243 241 239 238 235 234 236 240 245 251 256 261 268 276 283 289 292 295 298 303 306 304 303 304 303 300 298 297 296 295 295 296 296 297 293 287 289 291 287 285 286 286 286 284 281 280 282 284 284 282 282 283 284 286 288 289 289 287 287 290 293 297 299 300 302 305 308 309 308
238 246 252 254 259 267 274 281 284 281 279 285 288 278 257 241 236 236 234 233 232 233 238 243 248 252 257 264 271 278 286 291 296 298 300 302 304 302 302 302 300 300 299 296 295 295 296 293 292 294 291 287 290 291 287 284 283 284 285 284 281 280 279 280 281 281 280 280 283 287 289 289 287 285 286 289 294 297 298 299 301 304 308 309 308
238 247 254 257 261 268 274 279 281 276 270 277 282 276 259 243 239 237 233 232 235 239 242 246 250 256 262 267 275 285 292 298 302 302 300 300 299 298 298 297 296 295 295 293 291 292 291 290 290 293 292 291 291 290 287 283 282 284 285 282 280 279 278 276 278 279 279 278 280 284 287 287 285 283 284 288 293 295 296 297 299 304 307 308 307
237 248 254 258 263 270 275 277 280 275 267 269 274 270 264 258 253 246 239 239 241 243 245 250 255 260 266 274 285 294 297 301 304 303 302 299 294 291 291 291 292 293 293 293 292 292 292 291 291 291 292 293 292 290 287 283 282 285 286 282 279 278 277 276 276 278 279 278 279 281 284 284 283 282 282 285 290 293 294 294 297 303 306 306 305
240 249 254 259 263 269 272 273 276 276 269 266 269 267 264 263 259 252 248 248 248 248 250 254 259 265 274 285 293 296 298 301 302 300 297 290 285 285 288 292 297 299 299 300 300 299 297 296 296 295 294 294 293 292 290 286 283 283 284 282 278 277 277 276 275 276 277 277 277 279 282 283 282 282 282 283 286 289 292 293 297 302 304 303 302
242 247 251 257 261 264 267 269 272 275 272 269 268 266 263 261 257 255 255 254 252 252 253 257 263 272 283 291 296 300 302 301 297 294 291 288 289 290 290 295 301 304 303 301 300 299 297 297 300 300 298 297 295 294 293 291 287 283 282 282 279 276 277 276 273 274 274 275 276 277 279 281 281 281 281 282 284 287 290 294 297 301 302 300 299
242 246 250 255 258 261 264 265 268 272 274 271 268 265 263 259 255 256 256 255 254 255 257 260 267 278 288 294 298 303 304 298 294 294 293 295 301 301 295 296 301 304 304 301 298 297 296 297 299 301 302 301 299 298 297 295 291 285 282 281 278 275 276 275 271 271 272 273 274 276 277 278 279 279 280 282 284 287 291 295 298 300 299 298 297
246 251 253 253 255 259 261 263 266 269 271 270 268 266 262 258 256 256 257 257 258 259 261 266 275 285 291 294 297 301 303 301 301 303 303 301 301 302 302 304 306 309 310 307 303 300 297 299 302 304 305 305 304 302 301 298 295 290 285 280 276 276 278 274 268 268 270 272 273 275 276 277 276 277 279 282 284 288 292 296 298 298 296 297 297
249 255 253 249 251 256 259 262 264 265 266 268 269 267 263 259 258 258 259 259 261 264 268 274 282 288 290 292 296 298 301 304 308 314 315 311 306 306 311 316 318 319 318 315 311 307 304 303 305 306 307 309 307 303 301 300 298 296 291 282 275 277 281 274 266 266 269 271 273 275 277 277 275 275 279 281 284 290 294 296 296 296 296 297 298
249 253 249 244 246 251 256 260 262 261 263 265 265 264 260 258 257 257 258 261 265 268 272 278 286 292 294 295 297 298 300 306 313 317 318 319 319 318 319 323 322 320 318 316 316 315 310 307 305 304 306 311 311 307 304 302 300 301 298 287 277 279 285 278 270 269 271 272 274 275 278 280 276 274 277 281 286 292 293 293 295 298 299 298 298
244 246 242 239 242 248 253 258 260 261 262 262 260 257 254 253 253 253 257 265 272 273 275 283 292 298 301 300 300 301 304 310 314 313 312 315 317 317 318 321 322 320 316 314 315 316 313 308 303 301 303 310 314 313 309 304 301 304 306 294 281 280 286 282 273 271 273 275 275 276 280 282 277 274 276 281 286 289 290 294 298 300 299 299 299
237 239 239 237 240 245 250 254 257 259 261 262 262 259 256 253 251 250 256 269 281 283 285 291 295 297 300 301 303 306 308 312 312 310 310 312 313 313 314 317 319 320 317 314 315 316 313 307 300 298 301 307 311 310 304 300 299 301 304 296 284 280 283 281 273 273 276 277 275 278 282 281 275 275 279 283 287 290 294 298 300 300 301 300 299
230 233 235 235 237 241 245 249 252 255 259 262 263 264 263 259 256 256 259 268 280 289 294 296 297 298 299 301 303 306 308 311 312 312 312 312 313 313 313 314 316 318 317 315 315 317 315 309 304 304 306 306 305 302 298 298 298 297 297 294 284 279 280 278 273 275 278 275 275 279 280 276 274 277 281 286 292 297 300 301 301 302 302 300 298
223 226 230 230 231 235 240 244 248 252 256 259 263 267 267 263 261 263 264 268 277 285 291 295 298 300 301 302 303 305 307 310 312 312 312 312 313 313 313 313 313 315 316 314 315 316 315 311 312 314 311 306 301 297 295 296 298 298 298 295 284 277 278 277 275 278 278 273 275 278 276 274 277 281 286 291 297 300 301 301 301 301 300 298 298
219 222 228 229 228 233 238 240 244 248 253 259 263 267 268 267 267 268 269 273 277 281 285 290 295 298 300 301 301 303 307 309 310 310 310 310 309 310 310 310 311 313 314 312 313 314 311 307 311 315 312 308 302 295 294 296 297 298 298 294 285 278 276 274 276 279 277 273 274 275 275 277 281 286 292 297 299 299 299 299 299 299 297 297 297
217 221 228 230 229 232 235 237 242 247 253 258 260 262 266 270 273 273 275 277 279 280 283 287 291 295 297 298 299 303 306 308 308 308 308 307 306 306 307 307 309 312 313 312 313 314 310 307 309 313 312 310 306 301 298 297 297 297 295 290 284 277 271 272 277 279 275 273 273 271 271 276 282 289 295 297 297 298 298 298 298 297 297 296 295
216 222 227 229 229 230 233 237 242 247 250 253 256 259 265 271 276 278 278 279 280 281 284 287 290 293 295 296 297 302 306 307 308 307 305 304 304 304 305 306 308 310 311 312 313 312 308 305 307 310 310 309 308 307 305 302 300 297 292 286 282 273 268 270 276 275 271 274 273 266 265 274 284 292 294 295 296 297 298 297 297 297 296 295 294
215 220 227 229 228 229 232 237 242 245 249 253 258 262 265 269 275 278 278 279 281 282 285 288 290 291 293 295 295 298 302 304 306 306 303 302 302 303 304 305 306 307 307 310 311 309 305 304 305 308 309 310 309 308 308 308 305 298 290 284 280 273 268 270 273 271 273 277 271 266 272 283 290 294 294 295 297 297 296 297 296 296 295 294 294
214 218 225 229 230 232 236 240 243 247 251 255 260 264 267 270 273 275 277 279 281 283 285 288 289 289 291 292 293 295 297 299 302 303 301 299 299 301 303 304 304 304 304 307 309 308 305 304 305 306 307 309 308 307 307 307 304 298 292 285 277 272 268 269 271 272 276 277 272 272 284 292 293 293 294 296 296 295 295 296 296 295 295 294 295
216 220 225 229 231 233 238 242 245 248 251 256 260 265 268 271 272 274 277 278 279 281 284 285 286 287 288 291 292 293 295 297 299 300 298 295 296 298 302 303 303 302 303 305 307 307 305 304 303 304 304 305 305 304 304 304 301 297 291 282 274 271 267 266 269 273 278 280 278 281 289 293 292 292 293 294 294 294 296 296 296 295 294 294 296
219 223 228 231 233 234 238 244 247 250 253 257 261 265 268 271 273 275 277 278 278 279 281 282 283 284 287 291 292 292 294 297 298 297 294 292 293 297 300 301 302 301 302 303 303 303 303 303 302 301 301 302 303 302 302 304 303 295 283 273 269 268 266 266 272 280 285 286 286 289 292 292 291 291 292 292 293 295 297 296 295 294 294 296 297
224 226 229 232 235 236 239 244 249 253 256 259 262 266 268 270 273 275 275 275 275 276 277 279 280 282 286 289 290 292 296 297 297 296 294 291 293 296 298 299 300 301 301 301 301 301 300 300 300 299 300 300 300 300 302 305 304 290 275 269 266 266 268 271 279 290 294 290 288 290 290 288 289 290 292 292 295 296 296 294 292 293 296 298 298
230 231 232 233 236 238 241 246 250 254 257 259 262 265 268 270 272 272 271 270 270 272 275 278 279 280 282 284 287 292 295 295 297 298 298 296 294 295 296 298 298 299 300 300 300 299 298 298 298 298 300 300 300 301 301 303 299 283 270 267 266 269 276 281 288 297 300 295 291 291 290 291 292 293 293 294 295 295 294 292 293 296 297 297 297
231 232 234 235 238 241 244 247 251 254 257 259 261 263 265 266 266 266 268 271 273 273 274 277 279 280 281 283 287 291 293 294 296 298 299 298 296 294 295 297 297 298 298 298 298 297 297 297 297 298 299 301 302 303 302 300 292 275 263 261 267 276 285 291 295 300 301 298 296 296 296 296 295 293 293 294 293 293 293 294 295 296 296 296 296
233 234 237 239 242 246 249 250 252 253 256 258 259 262 266 266 265 265 269 274 277 276 275 278 281 282 284 285 287 290 292 293 293 294 296 295 294 294 295 295 296 297 297 296 296 296 296 295 296 298 301 303 304 305 304 297 284 272 265 269 278 285 291 295 297 298 297 296 296 296 296 294 293 292 293 292 292 293 294 295 295 295 295 296 297
237 238 241 242 244 245 246 246 247 249 253 258 262 266 271 274 275 275 275 278 281 281 280 282 284 285 285 286 287 289 290 289 288 289 291 291 291 293 294 294 294 295 295 295 295 295 294 294 296 300 304 305 306 307 304 292 279 275 276 281 285 288 291 292 292 292 293 294 294 293 293 293 293 293 292 291 292 294 295 295 296 295 295 296 297
239 241 243 246 247 246 245 245 248 252 257 262 267 270 272 276 279 281 282 282 282 282 283 285 286 285 285 286 287 287 285 284 284 285 287 289 291 292 292 293 294 295 296 296 295 293 293 293 296 302 306 307 307 307 303 291 283 282 284 286 287 288 289 289 289 291 292 293 292 292 292 292 292 292 291 292 293 295 295 295 295 295 296 296 297
240 242 244 247 249 251 253 254 257 259 260 263 266 268 270 274 277 278 279 280 281 282 284 285 285 285 285 285 285 283 280 279 280 282 286 289 291 291 292 292 294 296 297 297 294 292 291 291 294 300 305 307 308 307 302 296 294 293 292 290 289 288 287 288 290 292 292 292 291 291 292 292 292 292 293 294 294 295 295 295 295 295 295 296 298
241 244 246 249 254 258 259 258 259 260 260 262 264 267 270 273 274 274 275 278 281 282 284 284 284 284 283 282 280 278 277 278 280 283 287 290 290 290 291 292 294 296 297 297 296 294 292 292 295 300 304 306 306 303 300 299 299 298 295 292 290 288 288 289 291 292 292 292 292 292 292 293 294 294 294 295 295 295 294 294 294 294 295 297 300
246 248 251 255 258 260 258 255 255 258 259 261 265 268 271 272 274 275 277 279 281 283 284 284 284 282 279 278 277 277 277 279 282 285 287 289 289 290 290 292 293 295 296 296 296 296 295 296 299 301 303 303 301 300 300 301 300 298 296 294 292 291 291 292 292 292 292 292 293 293 294 295 295 295 296 296 295 295 294 294 294 294 297 299 301
248 250 253 254 255 254 253 253 254 257 260 263 266 268 269 271 273 275 276 278 280 281 282 283 281 279 278 278 278 277 278 280 282 284 286 288 289 289 291 292 293 294 294 294 294 295 297 299 300 301 300 300 300 300 301 301 299 298 298 296 294 293 294 294 294 293 293 293 294 294 295 296 297 297 297 296 296 295 293 293 293 295 297 300 300
Height
5917 5918 5918 5919 5920 5920 5921 5921 5922 5922 5923 5923 5923 5924 5924 5925 5925 5926 5927 5927 5927 5928 5928 5928 5929 5929 5929 5930 5930 5930 5930 5931 5931 5931 5931 5931 5931 5931 5932 5932 5932 5931 5931 5930 5930 5929 5929 5928 5927 5927 5926 5925 5925 5924 5923 5922 5921 5920 5919 5918 5917 5916 5915 5914 5914 5913 5912 5911 5910 5910 5908 5908 5907 5906 5905 5904 5903 5902 5901 5900 5899 5899 5898 5898 5897
5917 5918 5918 5919 5919 5920 5920 5921 5921 5922 5922 5923 5923 5923 5923 5924 5925 5925 5926 5926 5927 5927 5928 5928 5928 5929 5929 5929 5930 5930 5930 5930 5931 5931 5930 5930 5931 5931 5931 5931 5931 5930 5930 5929 5928 5928 5927 5926 5926 5925 5924 5924 5923 5922 5921 5920 5920 5919 5918 5917 5915 5914 5913 5913 5912 5912 5911 5911 5909 5908 5907 5906 5905 5904 5903 5902 5902 5901 5900 5899 5898 5897 5897 5896 5896
5917 5917 5918 5918 5919 5919 5920 5920 5921 5921 5922 5922 5922 5923 5923 5923 5924 5925 5926 5926 5926 5927 5927 5927 5928 5928 5929 5929 5929 5930 5930 5930 5930 5930 5930 5930 5930 5930 5930 5930 5929 5929 5928 5927 5927 5926 5926 5925 5924 5923 5923 5922 5921 5920 5920 5919 5918 5917 5916 5915 5914 5913 5912 5911 5911 5910 5910 5909 5908 5907 5906 5904 5903 5902 5902 5901 5900 5899 5898 5898 5897 5896 5895 5895 5894
5916 5916 5917 5918 5918 5919 5919 5920 5920 5920 5921 5921 5922 5922 5922 5923 5923 5924 5925 5925 5926 5926 5926 5927 5927 5928 5928 5928 5929 5929 5929 5929 5929 5929 5929 5929 5929 5929 5929 5929 5928 5927 5926 5925 5925 5924 5923 5923 5922 5921 5921 5920 5919 5919 5918 5917 5917 5916 5915 5914 5913 5912 5911 5910 5909 5909 5908 5908 5907 5906 5905 5903 5902 5901 5900 5899 5898 5898 5897 5896 5895 5895 5894 5893 5893
5914 5915 5916 5917 5918 5918 5919 5919 5919 5920 5920 5920 5921 5921 5922 5922 5923 5923 5924 5924 5925 5925 5926 5926 5926 5926 5927 5928 5928 5928 5928 5928 5928 5928 5928 5927 5927 5927 5927 5926 5926 5925 5924 5923 5923 5922 5921 5920 5920 5919 5919 5918 5917 5917 5916 5915 5914 5914 5913 5912 5911 5910 5909 5908 5908 5907 5906 5905 5905 5904 5903 5902 5901 5900 5899 5898 5897 5896 5895 5894 5894 5893 5892 5892 5891
5913 5914 5914 5915 5916 5917 5918 5918 5919 5919 5919 5919 5920 5920 5921 5921 5922 5922 5922 5923 5924 5924 5924 5925 5925 5925 5926 5926 5926 5926 5926 5926 5926 5926 5926 5926 5925 5925 5924 5924 5923 5922 5922 5921 5920 5919 5919 5918 5917 5917 5916 5916 5916 5915 5914 5913 5912 5912 5911 5911 5910 5909 5908 5907 5906 5905 5904 5903 5902 5902 5901 5900 5899 5898 5897 5896 5895 5894 5894 5893 5892 5892 5891 5890 5889
5911 5912 5912 5913 5914 5915 5916 5917 5917 5917 5917 5918 5918 5919 5919 5920 5920 5921 5921 5922 5922 5922 5923 5923 5923 5924 5924 5924 5924 5924 5924 5924 5924 5924 5924 5924 5923 5923 5922 5921 5920 5920 5919 5918 5917 5917 5916 5915 5915 5914 5914 5914 5913 5913 5912 5912 5911 5910 5910 5909 5908 5907 5906 5905 5904 5903 5902 5901 5900 5899 5898 5898 5897 5896 5894 5893 5893 5892 5891 5891 5890 5890 5889 5888 5888
5910 5910 5910 5911 5912 5913 5914 5914 5915 5915 5916 5916 5917 5917 5918 5919 5919 5919 5919 5920 5920 5921 5921 5921 5922 5922 5922 5922 5922 5922 5922 5922 5922 5922 5922 5921 5920 5920 5919 5919 5918 5917 5916 5916 5915 5914 5914 5913 5913 5912 5912 5911 5911 5911 5910 5910 5909 5908 5908 5907 5907 5906 5905 5904 5903 5902 5901 5899 5898 5897 5896 5895 5894 5893 5892 5890 5890 5889 5889 5888 5888 5887 5887 5886 5885
5908 5908 5909 5909 5910 5911 5911 5912 5912 5913 5914 5914 5915 5915 5916 5917 5917 5918 5918 5918 5918 5919 5919 5920 5920 5920 5921 5921 5921 5920 5920 5920 5920 5919 5919 5918 5918 5917 5917 5916 5916 5915 5914 5913 5913 5912 5911 5911 5910 5910 5909 5909 5908 5908 5907 5907 5906 5906 5906 5905 5904 5903 5903 5902 5901 5900 5899 5898 5896 5895 5894 5892 5891 5890 5889 5887 5886 5886 5885 5885 5885 5884 5884 5883 5883
5906 5906 5907 5907 5908 5908 5909 5910 5910 5911 5912 5912 5913 5913 5914 5915 5916 5916 5916 5916 5917 5917 5917 5918 5918 5918 5919 5919 5919 5919 5919 5918 5918 5917 5916 5916 5915 5915 5915 5914 5913 5913 5912 5911 5910 5909 5909 5908 5908 5907 5906 5906 5905 5905 5904 5904 5904 5903 5903 5902 5901 5901 5900 5900 5899 5898 5897 5896 5895 5893 5892 5891 5889 5888 5887 5885 5884 5883 5882 5882 5881 5881 5881 5881 5880
5904 5904 5904 5905 5906 5906 5907 5907 5908 5908 5909 5910 5910 5911 5912 5913 5913 5913 5914 5915 5915 5915 5915 5916 5916 5917 5917 5917 5917 5917 5916 5916 5915 5915 5914 5914 5914 5913 5912 5912 5911 5910 5909 5908 5908 5907 5906 5905 5905 5904 5903 5903 5903 5902 5902 5901 5901 5901 5900 5899 5899 5898 5898 5897 5897 5896 5895 5894 5893 5892 5891 5890 5888 5887 5885 5884 5882 5881 5880 5879 5878 5878 5877 5877 5876
5901 5901 5902 5903 5903 5904 5904 5905 5905 5906 5907 5907 5908 5909 5909 5910 5911 5911 5912 5912 5913 5913 5913 5914 5914 5914 5915 5915 5915 5914 5914 5914 5913 5913 5913 5912 5912 5911 5910 5910 5909 5908 5907 5907 5906 5905 5904 5903 5902 5902 5901 5901 5900 5900 5899 5899 5898 5898 5897 5897 5897 5896 5896 5895 5894 5893 5893 5892 5891 5890 5889 5888 5887 5885 5884 5882 5880 5879 5878 5877 5876 5875 5874 5873 5873
5899 5899 5899 5900 5901 5902 5902 5902 5903 5903 5904 5904 5905 5906 5907 5907 5908 5909 5910 5910 5911 5911 5911 5911 5912 5912 5913 5913 5912 5912 5912 5912 5911 5911 5911 5910 5910 5909 5908 5908 5907 5906 5906 5905 5904 5902 5902 5901 5900 5900 5899 5898 5898 5897 5896 5896 5895 5895 5895 5895 5894 5894 5893 5892 5891 5890 5890 5889 5889 5888 5887 5886 5884 5883 5881 5880 5878 5877 5876 5875 5874 5873 5872 5871 5870
5898 5898 5898 5898 5899 5900 5900 5900 5900 5901 5901 5901 5902 5903 5904 5905 5906 5906 5907 5908 5908 5909 5909 5909 5910 5910 5911 5911 5910 5910 5910 5910 5909 5909 5909 5908 5908 5907 5906 5905 5905 5904 5903 5902 5901 5900 5899 5899 5898 5898 5897 5896 5895 5895 5894 5894 5893 5893 5892 5892 5891 5890 5889 5889 5888 5887 5886 5886 5885 5885 5884 5883 5882 5880 5879 5877 5876 5875 5874 5873 5872 5870 5869 5868 5867
5897 5898 5897 5897 5897 5898 5898 5898 5898 5898 5898 5899 5900 5901 5902 5902 5903 5904 5904 5905 5906 5907 5907 5907 5908 5909 5909 5909 5909 5908 5908 5908 5907 5907 5907 5906 5906 5905 5904 5903 5903 5902 5901 5900 5898 5898 5897 5897 5896 5895 5894 5894 5893 5893 5892 5892 5891 5890 5889 5888 5887 5887 5886 5885 5884 5883 5883 5882 5881 5881 5880 5880 5878 5877 5875 5874 5873 5872 5871 5870 5869 5868 5867 5866 5865
5896 5897 5896 5896 5896 5896 5896 5896 5896 5896 5896 5896 5897 5898 5899 5900 5900 5901 5902 5903 5904 5905 5905 5905 5906 5907 5907 5907 5906 5906 5906 5905 5905 5905 5905 5904 5903 5902 5902 5901 5901 5900 5899 5897 5896 5896 5895 5894 5894 5893 5892 5891 5891 5890 5890 5889 5889 5888 5886 5885 5884 5883 5882 5881 5880 5879 5879 5878 5877 5876 5876 5875 5874 5873 5872 5871 5870 5869 5868 5867 5866 5865 5864 5863 5862
5894 5895 5895 5895 5895 5895 5894 5894 5894 5894 5894 5894 5895 5896 5897 5897 5898 5899 5900 5901 5902 5902 5903 5903 5904 5904 5904 5904 5904 5903 5903 5903 5903 5903 5903 5902 5901 5900 5900 5899 5898 5898 5897 5896 5895 5894 5894 5893 5892 5891 5890 5889 5888 5887 5887 5887 5886 5885 5883 5882 5880 5879 5878 5877 5876 5875 5875 5874 5873 5872 5871 5871 5870 5869 5868 5867 5866 5865 5864 5863 5862 5861 5860 5859 5858
5893 5893 5893 5893 5893 5893 5893 5893 5893 5893 5893 5893 5892 5893 5894 5895 5896 5897 5898 5899 5900 5900 5901 5901 5901 5901 5901 5901 5901 5901 5900 5900 5901 5900 5900 5900 5899 5898 5898 5897 5896 5895 5895 5894 5893 5892 5891 5891 5890 5889 5888 5887 5885 5884 5884 5883 5882 5881 5880 5878 5877 5875 5874 5873 5872 5871 5871 5870 5869 5868 5867 5866 5865 5865 5864 5863 5862 5861 5860 5859 5858 5857 5856 5855 5854
5891 5891 5891 5891 5892 5892 5892 5891 5891 5891 5891 5891 5890 5890 5891 5892 5893 5895 5896 5897 5897 5898 5899 5899 5899 5899 5899 5899 5899 5898 5898 5898 5898 5898 5897 5897 5896 5896 5895 5895 5893 5893 5892 5891 5890 5889 5888 5888 5887 5886 5885 5884 5883 5881 5880 5879 5878 5877 5876 5875 5873 5872 5871 5869 5868 5868 5867 5866 5865 5864 5863 5862 5861 5860 5860 5859 5858 5857 5856 5855 5854 5853 5851 5850 5849
5890 5890 5890 5890 5890 5890 5890 5890 5890 5889 5889 5889 5889 5888 5889 5889 5890 5892 5893 5894 5895 5895 5896 5896 5897 5897 5897 5897 5896 5896 5896 5896 5896 5895 5895 5895 5894 5893 5892 5892 5891 5890 5889 5889 5888 5886 5885 5884 5883 5882 5882 5880 5879 5877 5876 5875 5874 5873 5872 5871 5870 5868 5867 5866 5865 5865 5864 5863 5861 5860 5859 5858 5857 5856 5856 5855 5854 5853 5852 5851 5850 5849 5847 5846 5844
5888 5888 5888 5888 5888 5888 5888 5888 5888 5888 5888 5887 5887 5887 5887 5887 5888 5889 5890 5891 5892 5893 5893 5894 5895 5895 5895 5894 5894 5893 5894 5894 5894 5894 5893 5893 5892 5890 5890 5890 5889 5888 5887 5886 5885 5883 5882 5881 5879 5878 5877 5876 5874 5872 5871 5870 5869 5868 5867 5867 5866 5864 5863 5862 5862 5861 5860 5859 5858 5857 5856 5855 5853 5852 5852 5851 5850 5849 5848 5846 5845 5844 5842 5841 5840
5886 5886 5886 5886 5886 5886 5886 5887 5886 5886 5886 5886 5885 5886 5885 5886 5886 5887 5887 5888 5889 5890 5891 5892 5892 5892 5892 5892 5891 5892 5892 5892 5892 5892 5891 5890 5889 5888 5887 5887 5886 5885 5884 5883 5882 5880 5879 5877 5875 5874 5872 5871 5869 5868 5866 5865 5864 5863 5862 5862 5861 5860 5859 5858 5857 5856 5855 5854 5853 5852 5851 5850 5849 5849 5848 5847 5846 5845 5843 5842 5840 5839 5838 5836 5834
5883 5883 5884 5884 5884 5884 5885 5885 5885 5885 5884 5884 5884 5884 5884 5884 5885 5885 5886 5886 5887 5888 5889 5889 5890 5890 5889 5889 5889 5890 5890 5889 5889 5889 5888 5887 5886 5885 5884 5883 5882 5880 5879 5878 5877 5876 5875 5873 5871 5870 5868 5867 5865 5863 5861 5860 5858 5857 5857 5856 5855 5854 5853 5852 5851 5850 5850 5849 5848 5847 5847 5846 5845 5844 5844 5843 5841 5840 5839 5837 5836 5834 5833 5831 5829
5881 5881 5881 5882 5882 5882 5883 5883 5883 5883 5883 5883 5883 5883 5883 5883 5883 5884 5884 5885 5886 5886 5887 5887 5887 5887 5887 5887 5888 5889 5888 5887 5886 5885 5884 5883 5883 5882 5880 5879 5878 5877 5876 5875 5873 5872 5870 5869 5867 5866 5864 5862 5861 5859 5857 5855 5853 5852 5851 5850 5849 5848 5848 5847 5846 5845 5844 5844 5843 5842 5842 5841 5841 5840 5840 5838 5837 5836 5834 5833 5831 5830 5828 5826 5824
5877 5878 5879 5879 5880 5880 5880 5881 5881 5881 5881 5881 5881 5882 5882 5882 5882 5882 5883 5883 5884 5884 5885 5885 5885 5885 5885 5886 5887 5887 5885 5883 5882 5881 5879 5878 5879 5878 5878 5877 5875 5874 5873 5871 5869 5868 5866 5865 5863 5862 5860 5857 5856 5855 5853 5851 5848 5846 5845 5844 5843 5842 5842 5842 5841 5840 5839 5839 5838 5837 5837 5837 5836 5836 5835 5834 5832 5831 5829 5828 5826 5825 5822 5821 5819
5874 5875 5876 5876 5877 5877 5878 5878 5878 5878 5878 5879 5879 5880 5880 5880 5881 5881 5881 5882 5882 5882 5883 5883 5883 5883 5884 5885 5884 5883 5881 5879 5878 5877 5876 5876 5877 5877 5877 5875 5873 5872 5871 5867 5865 5864 5862 5860 5859 5857 5855 5853 5851 5849 5848 5846 5843 5841 5839 5837 5837 5837 5837 5837 5836 5835 5834 5834 5834 5833 5832 5832 5832 5831 5830 5829 5828 5827 5826 5824 5822 5819 5817 5816 5814
5870 5871 5872 5873 5874 5874 5875 5876 5876 5876 5876 5876 5877 5878 5878 5879 5879 5879 5880 5880 5880 5880 5881 5881 5881 5882 5882 5882 5880 5878 5877 5875 5874 5874 5873 5873 5875 5875 5874 5872 5869 5867 5866 5863 5860 5859 5857 5856 5854 5852 5851 5849 5846 5844 5842 5840 5838 5835 5833 5830 5830 5831 5832 5831 5831 5830 5829 5829 5829 5828 5828 5827 5827 5826 5825 5824 5824 5823 5821 5819 5817 5815 5813 5811 5809
5867 5868 5869 5870 5871 5871 5872 5873 5873 5873 5873 5873 5874 5875 5876 5876 5877 5877 5877 5878 5878 5878 5878 5879 5879 5879 5879 5878 5876 5875 5873 5870 5870 5870 5869 5869 5872 5872 5870 5868 5865 5863 5861 5859 5857 5855 5853 5851 5850 5848 5847 5845 5842 5839 5837 5835 5832 5830 5827 5824 5824 5826 5827 5826 5825 5825 5824 5824 5824 5823 5823 5823 5822 5821 5821 5820 5819 5818 5817 5814 5812 5810 5808 5806 5803
5863 5865 5866 5867 5868 5869 5869 5870 5870 5870 5871 5871 5872 5873 5874 5874 5875 5875 5875 5875 5875 5876 5876 5876 5876 5876 5876 5874 5873 5871 5869 5867 5867 5867 5865 5867 5870 5869 5866 5865 5862 5859 5858 5856 5854 5852 5849 5847 5846 5844 5843 5841 5838 5835 5831 5829 5827 5825 5821 5818 5818 5821 5822 5820 5819 5820 5820 5819 5819 5818 5818 5818 5817 5817 5816 5815 5814 5813 5812 5810 5808 5805 5803 5800 5798
5860 5861 5863 5864 5865 5866 5866 5867 5867 5868 5869 5869 5869 5870 5871 5872 5872 5872 5873 5873 5873 5873 5873 5873 5873 5873 5872 5871 5869 5867 5865 5864 5864 5863 5863 5864 5865 5865 5863 5863 5860 5857 5855 5852 5850 5848 5844 5842 5841 5839 5838 5837 5833 5830 5827 5825 5822 5820 5815 5812 5814 5817 5817 5816 5816 5815 5815 5814 5814 5814 5813 5812 5812 5812 5811 5810 5810 5808 5807 5805 5803 5800 5797 5795 5792
5857 5858 5859 5861 5862 5863 5863 5864 5864 5865 5866 5867 5867 5868 5869 5869 5870 5870 5870 5870 5870 5870 5870 5870 5870 5869 5868 5867 5865 5863 5862 5862 5861 5861 5860 5860 5860 5860 5859 5858 5857 5854 5851 5848 5846 5843 5840 5837 5836 5834 5834 5831 5827 5824 5823 5820 5817 5815 5811 5808 5810 5812 5812 5812 5812 5811 5810 5810 5809 5808 5807 5807 5807 5806 5805 5805 5805 5803 5801 5799 5797 5794 5792 5789 5786
5854 5855 5856 5857 5859 5860 5861 5861 5862 5862 5863 5863 5864 5865 5866 5867 5867 5867 5867 5867 5868 5867 5867 5867 5867 5866 5865 5863 5862 5861 5859 5859 5858 5857 5856 5856 5856 5855 5853 5852 5850 5849 5846 5843 5840 5838 5835 5833 5831 5830 5829 5826 5822 5820 5818 5816 5813 5811 5808 5806 5806 5808 5808 5808 5807 5806 5806 5805 5805 5804 5802 5802 5802 5801 5800 5800 5799 5798 5796 5793 5791 5788 5786 5783 5780
5851 5852 5853 5855 5856 5857 5858 5859 5859 5859 5860 5860 5860 5862 5863 5864 5864 5864 5864 5864 5864 5864 5864 5864 5863 5862 5861 5860 5859 5858 5856 5855 5855 5853 5852 5851 5850 5849 5847 5845 5844 5842 5839 5837 5834 5832 5829 5827 5826 5825 5823 5821 5818 5815 5813 5811 5809 5807 5805 5803 5803 5803 5803 5803 5802 5801 5801 5800 5800 5799 5798 5797 5796 5796 5796 5795 5793 5791 5790 5788 5785 5782 5779 5777 5774
5847 5848 5849 5851 5853 5854 5855 5856 5856 5856 5856 5856 5857 5858 5859 5859 5860 5860 5861 5861 5861 5860 5860 5860 5860 5859 5858 5856 5855 5854 5853 5852 5851 5850 5848 5846 5844 5842 5841 5840 5838 5836 5833 5831 5828 5826 5824 5822 5820 5819 5817 5815 5813 5810 5808 5806 5804 5802 5800 5799 5798 5798 5798 5798 5797 5797 5796 5795 5795 5794 5793 5792 5792 5791 5791 5790 5788 5786 5784 5782 5780 5776 5773 5770 5767
5842 5844 5845 5847 5849 5851 5851 5852 5852 5852 5853 5853 5854 5854 5854 5855 5856 5857 5857 5857 5857 5857 5857 5857 5856 5855 5854 5853 5852 5850 5849 5848 5847 5845 5844 5841 5839 5837 5835 5834 5832 5830 5827 5825 5823 5821 5819 5817 5816 5814 5812 5810 5808 5806 5803 5802 5800 5798 5796 5794 5793 5793 5793 5792 5792 5792 5791 5791 5790 5790 5789 5788 5787 5786 5785 5784 5782 5781 5779 5777 5774 5771 5767 5763 5760
5838 5840 5841 5844 5846 5847 5848 5848 5849 5849 5849 5849 5849 5849 5849 5851 5852 5853 5853 5853 5853 5853 5853 5853 5852 5852 5851 5849 5848 5847 5845 5843 5842 5840 5838 5836 5834 5832 5830 5828 5826 5824 5821 5819 5818 5816 5814 5812 5810 5809 5807 5806 5804 5801 5799 5797 5795 5793 5790 5789 5788 5788 5787 5787 5788 5787 5787 5786 5786 5785 5785 5784 5782 5782 5780 5778 5776 5775 5773 5770 5767 5764 5761 5757 5753
5834 5836 5838 5840 5842 5843 5844 5845 5845 5845 5845 5844 5844 5845 5846 5848 5848 5849 5849 5849 5849 5849 5849 5848 5848 5847 5846 5845 5844 5843 5841 5839 5837 5835 5833 5830 5828 5826 5824 5822 5820 5817 5815 5813 5812 5811 5809 5807 5805 5804 5803 5801 5799 5797 5795 5793 5790 5788 5785 5784 5783 5782 5783 5784 5784 5783 5782 5781 5781 5780 5780 5779 5777 5776 5775 5772 5770 5768 5765 5763 5761 5758 5754 5751 5746
5829 5832 5834 5836 5838 5839 5841 5841 5840 5840 5840 5841 5841 5842 5843 5844 5845 5845 5845 5845 5844 5844 5844 5844 5843 5842 5842 5841 5840 5838 5836 5834 5832 5829 5827 5825 5822 5820 5818 5816 5814 5812 5810 5809 5808 5806 5804 5802 5801 5799 5798 5796 5795 5793 5791 5789 5786 5784 5781 5780 5778 5778 5779 5780 5779 5778 5777 5776 5775 5774 5774 5774 5772 5770 5768 5765 5763 5761 5758 5756 5754 5751 5748 5744 5740
5825 5827 5829 5831 5834 5836 5836 5836 5836 5836 5837 5838 5838 5838 5839 5840 5840 5840 5840 5840 5840 5839 5839 5839 5838 5838 5837 5836 5835 5833 5831 5829 5827 5824 5822 5819 5816 5814 5812 5810 5808 5806 5804 5803 5801 5800 5799 5798 5796 5794 5793 5792 5790 5788 5786 5784 5782 5779 5777 5775 5774 5775 5775 5775 5774 5773 5772 5772 5771 5770 5769 5768 5765 5764 5761 5759 5756 5754 5751 5749 5747 5744 5741 5737 5735
5821 5823 5825 5827 5829 5831 5832 5832 5832 5833 5833 5834 5834 5834 5834 5835 5835 5835 5835 5835 5835 5835 5835 5834 5833 5832 5832 5831 5830 5829 5827 5824 5822 5819 5817 5814 5810 5808 5806 5804 5803 5801 5799 5797 5795 5794 5793 5792 5791 5789 5788 5787 5785 5783 5782 5780 5777 5775 5773 5771 5771 5771 5771 5771 5770 5769 5769 5768 5767 5764 5763 5761 5759 5757 5755 5752 5750 5747 5744 5742 5739 5737 5734 5732 5729
5817 5819 5821 5823 5825 5827 5828 5828 5828 5829 5829 5830 5830 5830 5830 5830 5830 5830 5830 5830 5830 5830 5829 5829 5828 5827 5827 5826 5825 5824 5822 5820 5817 5814 5811 5808 5804 5802 5800 5799 5797 5795 5794 5792 5790 5789 5788 5786 5785 5784 5783 5782 5780 5778 5776 5774 5772 5769 5767 5767 5768 5768 5768 5767 5767 5765 5765 5764 5762 5759 5757 5756 5752 5750 5748 5745 5743 5741 5738 5735 5733 5730 5728 5726 5723
5813 5815 5817 5818 5820 5822 5823 5823 5824 5825 5825 5826 5826 5826 5825 5825 5825 5824 5824 5824 5824 5824 5823 5823 5823 5822 5822 5821 5820 5818 5817 5814 5811 5808 5805 5802 5799 5796 5795 5793 5792 5790 5789 5787 5786 5785 5783 5782 5781 5780 5779 5777 5775 5773 5771 5769 5766 5764 5763 5764 5764 5764 5763 5763 5762 5760 5759 5759 5757 5754 5752 5750 5746 5744 5741 5739 5736 5734 5731 5729 5726 5724 5722 5719 5716
5809 5810 5812 5814 5815 5817 5818 5819 5820 5820 5821 5821 5821 5821 5820 5820 5819 5819 5819 5819 5819 5818 5818 5818 5817 5816 5816 5815 5814 5813 5811 5809 5806 5803 5799 5795 5793 5791 5789 5788 5786 5785 5784 5782 5781 5780 5779 5778 5776 5775 5774 5772 5770 5768 5765 5763 5761 5761 5760 5760 5759 5759 5759 5758 5757 5755 5753 5752 5750 5748 5746 5743 5740 5737 5735 5732 5730 5728 5725 5723 5720 5718 5715 5712 5709
5804 5805 5807 5809 5810 5812 5813 5814 5815 5815 5815 5815 5815 5815 5815 5814 5813 5812 5812 5813 5813 5812 5812 5811 5810 5809 5809 5809 5808 5807 5805 5803 5801 5797 5793 5790 5787 5785 5784 5783 5781 5780 5779 5778 5777 5776 5775 5774 5772 5770 5769 5767 5765 5763 5761 5758 5757 5757 5756 5755 5755 5754 5754 5753 5751 5749 5748 5746 5744 5742 5739 5736 5733 5731 5729 5726 5724 5721 5719 5717 5714 5711 5708 5705 5702
5799 5800 5802 5804 5805 5807 5808 5809 5809 5809 5809 5809 5809 5809 5810 5809 5808 5807 5806 5806 5806 5805 5805 5805 5804 5803 5803 5803 5802 5801 5799 5797 5794 5791 5788 5785 5782 5780 5779 5778 5777 5776 5774 5773 5772 5771 5770 5769 5767 5766 5764 5762 5760 5758 5756 5755 5754 5753 5752 5751 5750 5749 5748 5747 5745 5744 5742 5740 5738 5735 5733 5730 5727 5725 5723 5720 5718 5715 5712 5710 5708 5704 5702 5699 5696
5794 5795 5797 5798 5800 5800 5801 5802 5803 5803 5803 5804 5804 5804 5804 5804 5804 5802 5801 5800 5800 5799 5799 5799 5799 5798 5797 5796 5795 5794 5792 5790 5788 5785 5783 5780 5778 5776 5775 5773 5772 5771 5769 5768 5767 5766 5765 5763 5762 5760 5758 5756 5754 5752 5751 5750 5750 5749 5748 5747 5745 5744 5742 5741 5740 5738 5736 5734 5731 5728 5726 5724 5721 5719 5717 5714 5712 5709 5706 5703 5701 5698 5695 5693 5691
5788 5789 5791 5792 5793 5794 5795 5796 5797 5798 5798 5798 5798 5798 5798 5798 5797 5796 5795 5795 5796 5795 5794 5793 5792 5792 5791 5789 5788 5787 5785 5784 5782 5779 5777 5776 5774 5772 5770 5769 5768 5766 5765 5763 5762 5761 5760 5758 5756 5755 5753 5751 5750 5748 5747 5746 5745 5744 5743 5742 5740 5738 5736 5735 5733 5732 5729 5727 5725 5722 5719 5718 5715 5713 5710 5708 5706 5703 5700 5697 5695 5692 5690 5688 5685
5782 5784 5786 5787 5788 5789 5790 5791 5792 5793 5793 5793 5793 5793 5792 5792 5791 5790 5790 5790 5790 5790 5788 5787 5786 5785 5784 5782 5781 5780 5779 5778 5776 5774 5772 5771 5770 5768 5766 5765 5763 5761 5760 5758 5757 5756 5755 5753 5752 5750 5748 5747 5745 5743 5742 5741 5740 5738 5737 5736 5734 5733 5731 5729 5727 5725 5723 5720 5718 5716 5713 5711 5709 5707 5704 5702 5699 5697 5694 5691 5689 5687 5685 5683 5680
5777 5779 5780 5782 5782 5783 5784 5785 5786 5787 5787 5787 5787 5787 5786 5786 5785 5784 5784 5784 5784 5783 5782 5781 5780 5779 5777 5776 5775 5774 5773 5772 5770 5769 5767 5766 5764 5763 5762 5760 5758 5757 5755 5753 5752 5751 5749 5748 5747 5745 5743 5742 5740 5738 5737 5735 5734 5733 5731 5730 5728 5727 5725 5723 5720 5718 5716 5714 5712 5710 5708 5705 5703 5701 5698 5695 5693 5691 5689 5686 5684 5682 5679 5678 5676
5772 5773 5775 5776 5777 5778 5779 5780 5781 5781 5782 5782 5781 5781 5780 5780 5779 5778 5778 5777 5776 5775 5774 5773 5773 5772 5771 5771 5769 5768 5767 5766 5764 5763 5761 5760 5759 5758 5757 5755 5753 5752 5750 5748 5747 5745 5744 5743 5742 5739 5737 5737 5736 5734 5732 5730 5729 5727 5726 5724 5722 5720 5719 5717 5714 5712 5710 5707 5705 5703 5701 5699 5697 5695 5692 5690 5688 5685 5683 5681 5679 5677 5675 5673 5672
5766 5767 5769 5770 5771 5772 5773 5774 5775 5776 5776 5775 5775 5775 5774 5774 5773 5772 5771 5771 5770 5769 5768 5767 5767 5766 5765 5765 5764 5762 5761 5760 5758 5757 5756 5755 5753 5752 5751 5750 5748 5746 5745 5743 5742 5740 5739 5737 5737 5735 5733 5732 5730 5729 5727 5725 5723 5721 5720 5718 5716 5714 5712 5710 5708 5706 5704 5701 5699 5697 5695 5694 5692 5690 5687 5685 5683 5680 5678 5676 5674 5672 5671 5669 5667